{"data":{"norad_id":59020,"intl_designator":"2024-037A","name":"TJS-11","alt_names":[],"object_type":"PAYLOAD","status":"ACTIVE","operator":null,"country":"PRC","launch_date":"2024-02-23","launch_site_code":"WSC","launch_vehicle":null,"mission":null,"orbit_class":"UNKNOWN","rcs_meters":null,"size_class":null,"mass_kg":null,"dimensions":null,"purposes":["comms"],"wikipedia_slug":null,"has_3d_model":false,"image_url":null,"decayed_at":null,"tle_current":{"epoch":"2026-09-19T20:44:52.610784Z","epoch_age_seconds":76910,"freshness":"FRESH","line1":"1 59020U 24037A   26262.86449781 -.00000366  00000+0  00000+0 0  9991","line2":"2 59020   4.0829 328.3098 0002084 277.5876 176.5946  1.00276336  9533","mean_motion":1.00276336,"eccentricity":0.0002084,"inclination_deg":4.0829,"raan_deg":328.3098,"arg_perigee_deg":277.5876,"mean_anomaly_deg":176.5946,"bstar":0,"rev_number":953,"period_min":1436.0317273659,"perigee_km":35776.532334665,"apogee_km":35794.106063208,"semimajor_km":42163.456198937,"source":"CELESTRAK","updated_at":"2026-09-20T09:00:35.336533Z"}}}